Ponca City, OK

7:46 PM CDT on September 25, 2017 (GMT -0500)
Ponca City Municipal

Weather History for KPNC - March, 2014

Change the Weather History Date:

Sunday, March 16, 2014

  Actual Average Record
Temperature  
Mean Temperature 42 °F -  
Max Temperature 53 °F 60 °F 82 °F (2015)
Min Temperature 28 °F 35 °F 22 °F (1956)
Degree Days  
Heating Degree Days 22    
Moisture  
Dew Point 30 °F    
Average Humidity 69    
Maximum Humidity 94    
Minimum Humidity 35    
Precipitation  
Precipitation 0.05 in - - ()
Sea Level Pressure  
Sea Level Pressure 30.04 in    
Wind  
Wind Speed 22 mph (North)    
Max Wind Speed 39 mph    
Max Gust Speed 52 mph    
Visibility 10 miles    
Events Rain , Snow    
Averages and records for this station are not official NWS values.
T = Trace of Precipitation, MM = Missing Value Source: NWS Daily Summary

Daily Weather History Graph

Daily Weather History Graph

Search for Another Location

Airport or City:

Trip Planner

Search our weather history database for the weather conditions in past years. The results will help you decide how hot, cold, wet, or windy it might be!

Date:

Astronomy

Mar. 16, 2014 Rise Set
Actual Time 7:37 AM CDT 7:36 PM CDT
Civil Twilight 7:12 AM CDT 8:02 PM CDT
Nautical Twilight 6:42 AM CDT 8:32 PM CDT
Astronomical Twilight 6:11 AM CDT 9:03 PM CDT
Moon 7:54 PM CDT (3/16) 7:22 AM CDT (3/16)
Length of Visible Light 12h 50m
Length of Day
11h 58m
Full, 100% of the Moon is Illuminated
Mar 16
Full
Mar 16
Full
Mar 23
Last Quarter
Mar 30
New
Apr 7
First Quarter

Hourly Weather History & Observations

Time (CDT) Temp. Windchill Dew Point Humidity Pressure Visibility Wind Dir Wind Speed Gust Speed Precip Events Conditions
12:53 AM 53.1 °F - 50.0 °F 89% 29.84 in 9.0 mi NNW 9.2 mph - 0.03 in Rain Light Rain
1:08 AM 51.8 °F - 50.0 °F 94% 29.86 in 8.0 mi NNW 17.3 mph 23.0 mph 0.01 in Rain Light Rain
1:33 AM 48.2 °F - 42.8 °F 82% 29.88 in 10.0 mi North 21.9 mph 28.8 mph 0.02 in Rain Light Rain
1:53 AM 46.0 °F 36.9 °F 37.0 °F 71% 29.87 in 10.0 mi North 28.8 mph 36.8 mph 0.02 in   Overcast
2:02 AM 44.6 °F 36.4 °F 37.4 °F 76% 29.89 in 10.0 mi North 20.7 mph 35.7 mph N/A   Overcast
2:33 AM 44.6 °F 35.9 °F 35.6 °F 71% 29.91 in 10.0 mi North 23.0 mph 33.4 mph N/A   Overcast
2:50 AM 42.8 °F 32.3 °F 35.6 °F 76% 29.92 in 10.0 mi North 29.9 mph 41.4 mph N/A   Overcast
2:53 AM 43.0 °F 32.5 °F 34.0 °F 71% 29.91 in 10.0 mi North 29.9 mph 41.4 mph N/A   Overcast
3:53 AM 42.1 °F 31.1 °F 33.1 °F 70% 29.91 in 10.0 mi North 31.1 mph 42.6 mph N/A   Overcast
4:04 AM 42.8 °F 32.3 °F 33.8 °F 70% 29.92 in 10.0 mi North 29.9 mph 39.1 mph N/A   Overcast
4:53 AM 39.9 °F 28.0 °F 30.9 °F 70% 29.94 in 10.0 mi North 32.2 mph 39.1 mph N/A   Overcast
5:53 AM 37.9 °F 24.2 °F 30.9 °F 76% 29.96 in 10.0 mi North 39.1 mph 51.8 mph N/A   Overcast
6:53 AM 36.0 °F 23.5 °F 30.9 °F 82% 30.01 in 7.0 mi North 27.6 mph 42.6 mph 0.00 in   Overcast
7:01 AM 35.6 °F 23.4 °F 32.0 °F 87% 30.02 in 5.0 mi North 25.3 mph 34.5 mph 0.00 in Snow Light Snow
7:14 AM 35.6 °F 21.9 °F 30.2 °F 81% 30.02 in 7.0 mi North 33.4 mph 42.6 mph 0.00 in Rain Light Freezing Rain
7:23 AM 35.6 °F 22.3 °F 30.2 °F 81% 30.02 in 10.0 mi North 31.1 mph 40.3 mph 0.00 in Rain Light Freezing Rain
7:31 AM 35.6 °F 22.7 °F 30.2 °F 81% 30.02 in 10.0 mi North 28.8 mph 40.3 mph 0.00 in Rain Light Freezing Rain
7:45 AM 35.6 °F 22.3 °F 30.2 °F 81% 30.03 in 10.0 mi North 31.1 mph 40.3 mph 0.00 in   Overcast
7:53 AM 36.0 °F 23.9 °F 30.9 °F 82% 30.04 in 10.0 mi North 25.3 mph 40.3 mph 0.00 in   Overcast
8:53 AM 36.0 °F 24.2 °F 30.0 °F 79% 30.09 in 10.0 mi North 24.2 mph 34.5 mph N/A   Overcast
9:53 AM 35.1 °F 22.2 °F 28.9 °F 78% 30.14 in 10.0 mi North 27.6 mph 36.8 mph N/A   Overcast
10:53 AM 35.1 °F 21.6 °F 27.0 °F 72% 30.18 in 10.0 mi North 31.1 mph 41.4 mph N/A   Overcast
11:53 AM 35.1 °F 22.7 °F 27.0 °F 72% 30.21 in 10.0 mi North 25.3 mph 34.5 mph N/A   Overcast
12:53 PM 36.0 °F 23.7 °F 26.1 °F 67% 30.19 in 10.0 mi North 26.5 mph 35.7 mph N/A   Overcast
1:31 PM 39.2 °F 28.0 °F 28.4 °F 65% 30.17 in 10.0 mi North 26.5 mph 34.5 mph N/A   Overcast
1:53 PM 42.1 °F 31.9 °F 28.9 °F 60% 30.17 in 10.0 mi North 26.5 mph - N/A   Overcast
2:53 PM 45.0 °F 36.6 °F 27.0 °F 49% 30.13 in 10.0 mi North 21.9 mph 33.4 mph N/A   Overcast
3:53 PM 48.9 °F - 25.0 °F 39% 30.11 in 10.0 mi North 23.0 mph 34.5 mph N/A   Clear
4:53 PM 48.9 °F - 21.9 °F 35% 30.11 in 10.0 mi North 24.2 mph 32.2 mph N/A   Clear
5:53 PM 46.9 °F - 21.9 °F 37% 30.12 in 10.0 mi North 21.9 mph 28.8 mph N/A   Clear
6:53 PM 46.0 °F 38.5 °F 21.0 °F 37% 30.13 in 10.0 mi NNE 19.6 mph 25.3 mph N/A   Clear
7:53 PM 41.0 °F 35.2 °F 21.9 °F 47% 30.14 in 10.0 mi North 9.2 mph - N/A   Clear
8:53 PM 36.0 °F 33.3 °F 23.0 °F 59% 30.12 in 10.0 mi NE 3.5 mph - N/A   Clear
9:53 PM 32.0 °F 28.7 °F 23.0 °F 69% 30.16 in 10.0 mi NNW 3.5 mph - N/A   Clear
10:53 PM 33.1 °F - 21.0 °F 61% 30.14 in 10.0 mi Calm Calm - N/A   Clear
11:53 PM 28.0 °F - 21.0 °F 75% 30.14 in 10.0 mi Calm Calm - N/A   Clear